Curtin, Western Australia

1:12 AM AWST on February 11, 2016 (GMT +0800)
Curtin

Weather History for YCIN - November, 2012

Change the Weather History Date:

Friday, November 30, 2012

  Actual Average Record
Temperature  
Mean Temperature 90 °F -  
Max Temperature 105 °F - - ()
Min Temperature 75 °F - - ()
Cooling Degree Days 25    
Growing Degree Days 40 (Base 50)    
Moisture  
Dew Point 72 °F    
Average Humidity 62    
Maximum Humidity 94    
Minimum Humidity 21    
Precipitation  
Precipitation 0.55 in - - ()
Sea Level Pressure  
Sea Level Pressure 29.77 in    
Wind  
Wind Speed 6 mph ()    
Max Wind Speed 9 mph    
Max Gust Speed -    
T = Trace of Precipitation, MM = Missing Value Source: Averaged Metar Reports

Daily Weather History Graph

Daily Weather History Graph

Search for Another Location

Airport or City:

Trip Planner

Search our weather history database for the weather conditions in past years. The results will help you decide how hot, cold, wet, or windy it might be!

Date:

Astronomy

Nov. 30, 2012 Rise Set
Actual Time 5:00 AM AWST 6:06 PM AWST
Civil Twilight 4:36 AM AWST 6:30 PM AWST
Nautical Twilight 4:08 AM AWST 6:58 PM AWST
Astronomical Twilight 3:39 AM AWST 7:27 PM AWST
Moon 7:28 PM AWST (11/30) 6:06 AM AWST (11/30)
Length of Visible Light 13h 53m
Length of Day
13h 05m
Full, 98% of the Moon is Illuminated
Nov 30
Full
Dec 6
Last Quarter
Dec 13
New
Dec 20
First Quarter
Dec 28
Full

Hourly Weather History & Observations

Time (AWST) Temp. Heat Index Dew Point Humidity Pressure Visibility Wind Dir Wind Speed Gust Speed Precip Events Conditions
12:00 AM 83 °F - 73 °F 64% 29.79 in - West 5.8 mph - -  
12:00 AM 82.4 °F 88.2 °F 73.4 °F 74% 29.80 in - West 5.8 mph - N/A   Unknown
1:00 AM 82.4 °F 88.2 °F 73.4 °F 74% 29.77 in - WSW 6.9 mph - N/A   Unknown
2:00 AM 80.6 °F 85.4 °F 73.4 °F 79% 29.77 in - West 4.6 mph - N/A   Unknown
3:00 AM 80 °F - 74 °F 79% 29.76 in - WSW 6.9 mph - -  
3:00 AM 80.6 °F 86.2 °F 75.2 °F 84% 29.77 in - WSW 6.9 mph - N/A   Unknown
4:00 AM 78.8 °F - 75.2 °F 89% 29.77 in - WSW 4.6 mph - N/A   Unknown
5:00 AM 78.8 °F - 73.4 °F 83% 29.80 in - SW 5.8 mph - N/A   Unknown
6:00 AM 80 °F - 75 °F 79% 29.82 in - SW 4.6 mph - -  
6:00 AM 80.6 °F 86.2 °F 75.2 °F 84% 29.83 in - SW 4.6 mph - N/A   Unknown
7:00 AM 82.4 °F 89.5 °F 75.2 °F 79% 29.83 in - SW 9.2 mph - N/A   Unknown
8:00 AM 86.0 °F 91.8 °F 71.6 °F 62% 29.86 in - WSW 8.1 mph - N/A   Unknown
9:00 AM 90 °F - 69 °F 41% 29.82 in - SW 6.9 mph - -  
9:00 AM 89.6 °F 94.7 °F 69.8 °F 52% 29.83 in - SW 6.9 mph - N/A   Unknown
10:00 AM 93.2 °F 96.2 °F 66.2 °F 41% 29.80 in - WSW 5.8 mph - N/A   Unknown
11:00 AM 98.6 °F 101.0 °F 64.4 °F 32% 29.77 in - WNW 5.8 mph - N/A   Unknown
12:00 PM 102 °F - 65 °F 21% 29.75 in - WNW 6.9 mph - -  
12:00 PM 102.2 °F 106.9 °F 66.2 °F 31% 29.74 in - WNW 6.9 mph - N/A   Unknown
1:00 PM 102.2 °F 104.2 °F 62.6 °F 27% 29.71 in - North 5.8 mph - N/A   Unknown
2:00 PM 104.0 °F 107.4 °F 64.4 °F 27% 29.68 in - NW 5.8 mph - N/A   Unknown
3:00 PM 101 °F - 67 °F 24% 29.66 in - NW 9.2 mph - -  
3:00 PM 102.2 °F 106.9 °F 66.2 °F 31% 29.65 in - NW 9.2 mph - N/A   Unknown
4:00 PM 100.4 °F 106.3 °F 68.0 °F 35% 29.65 in - NW 6.9 mph - N/A   Unknown
5:00 PM 91.4 °F 102.5 °F 75.2 °F 59% 29.68 in - North 9.2 mph - N/A   Unknown
6:00 PM 89 °F - 75 °F 56% 29.70 in - NW 3.5 mph - -  
6:00 PM 89.6 °F 99.8 °F 75.2 °F 62% 29.71 in - NW 3.5 mph - N/A   Unknown
7:00 PM 89.6 °F 99.8 °F 75.2 °F 62% 29.74 in - NNW 4.6 mph - N/A   Unknown
8:00 PM 87.8 °F 97.6 °F 75.2 °F 66% 29.80 in - East 6.9 mph - N/A   Unknown
9:00 PM 75 °F - 73 °F 91% 29.86 in - NE 8.1 mph - -  
9:00 PM 75.2 °F - 73.4 °F 94% 29.86 in - NE 8.1 mph - N/A   Unknown
10:00 PM 77.0 °F - 75.2 °F 94% 29.86 in - North 8.1 mph - N/A   Unknown
11:00 PM 77.0 °F - 75.2 °F 94% 29.83 in - NNW 6.9 mph - N/A   Unknown